G7GQA-4 Weather Reports


time (UTC)temp
C
wind
direction
speed
KPH
gust
KPH
rain 1hr
cm
rain 24hr
cm
rain mn
cm
humidity
%
barometer
mb
20260505153024 14 308 4.8 9.7 0.00 0.00 0.00 56
20260505152024 14 301 4.8 8.0 0.00 0.00 0.00 56
20260505151024 14 309 4.8 9.7 0.00 0.00 0.00 57
20260505125022 15 320 4.8 14.5 0.00 0.00 0.00 53
20260505124022 15 318 4.8 11.3 0.00 0.00 0.00 52
20260505123023 14 314 4.8 8.0 0.00 0.00 0.00 55
20260505122022 14 327 4.8 12.9 0.00 0.00 0.00 56
20260505121022 13 349 4.8 8.0 0.00 0.00 0.00 57
20260505120023 13 329 4.8 9.7 0.00 0.00 0.00 58
20260505115022 13 327 3.2 6.4 0.00 0.00 0.00 59
20260505114022 13 318 4.8 9.7 0.00 0.00 0.00 59
20260505113023 13 327 3.2 6.4 0.00 0.00 0.00 61
20260505112023 13 310 3.2 6.4 0.00 0.00 0.00 61
20260505111023 13 339 4.8 8.0 0.00 0.00 0.00 63
20260505102022 13 352 4.8 8.0 0.00 0.00 0.00 66
20260505101022 12 323 3.2 9.7 0.00 0.00 0.00 69
20260505100022 13 39 4.8 9.7 0.00 0.00 0.00 65
20260505095022 13 331 4.8 9.7 0.00 0.00 0.00 65
20260505094022 12 326 4.8 9.7 0.00 0.00 0.00 68
20260505093022 12 325 4.8 8.0 0.00 0.00 0.00 70
20260505092022 12 320 4.8 9.7 0.00 0.00 0.00 72
20260505091022 11 308 6.4 12.9 0.00 0.00 0.00 74
20260505090022 11 315 4.8 8.0 0.00 0.00 0.00 74
20260505085022 10 313 6.4 16.1 0.00 0.00 0.00 78
20260505084021 10 308 3.2 9.7 0.00 0.00 0.00 79
20260505083021 10 306 3.2 6.4 0.00 0.00 0.00 80
20260504225521 7 0.0 0.0 0.00 0.00 0.00 93
20260504224521 8 0.0 0.0 0.00 0.05 0.00 92
20260504223521 8 0.0 0.0 0.00 0.05 0.00 92
20260504222521 8 144 1.6 3.2 0.00 0.05 0.00 92
20260504221521 8 0.0 0.0 0.00 0.05 0.00 92
20260504220522 8 0.0 0.0 0.00 0.05 0.00 92
20260504215521 8 0.0 0.0 0.00 0.08 0.00 92
20260504214521 8 0.0 0.0 0.00 0.08 0.00 92
20260504213522 8 0.0 0.0 0.00 0.13 0.00 92
20260504212522 9 0.0 0.0 0.00 0.23 0.00 91
20260504211521 9 0.0 0.0 0.00 0.33 0.00 91
20260504210522 9 0.0 0.0 0.00 0.36 0.00 91
20260504205522 9 144 0.0 3.2 0.00 0.36 0.00 91
20260504204521 10 0.0 0.0 0.00 0.36 0.00 90
20260504203522 10 0.0 0.0 0.00 0.36 0.00 90
20260504202522 10 0.0 0.0 0.00 0.36 0.00 89
20260504201522 10 0.0 0.0 0.00 0.36 0.00 88
20260504200522 11 0.0 0.0 0.00 0.36 0.00 86
20260504195522 11 0.0 0.0 0.00 0.36 0.00 84
20260504194522 12 144 0.0 3.2 0.00 0.36 0.00 83
20260504193521 12 144 0.0 3.2 0.00 0.36 0.00 82
20260504192522 12 144 0.0 3.2 0.00 0.36 0.00 81
20260504191522 13 120 1.6 3.2 0.00 0.36 0.00 80
20260504190522 13 120 3.2 4.8 0.00 0.36 0.00 79
20260504185522 13 146 3.2 6.4 0.00 0.36 0.00 77
20260504184522 13 126 3.2 11.3 0.00 0.36 0.00 76
20260504183522 14 125 1.6 6.4 0.00 0.36 0.00 76
20260504182522 14 116 1.6 4.8 0.00 0.36 0.00 74
20260504181522 14 358 1.6 3.2 0.00 0.36 0.00 75
20260504180522 14 84 1.6 3.2 0.00 0.36 0.00 75
20260504175522 14 310 3.2 6.4 0.00 0.36 0.00 76
20260504174522 14 42 3.2 6.4 0.00 0.36 0.00 75
20260504173522 15 331 1.6 3.2 0.00 0.36 0.00 75
20260504172522 14 336 3.2 4.8 0.00 0.36 0.00 76
20260504171522 14 1 3.2 6.4 0.00 0.36 0.00 76
20260504170522 14 329 3.2 6.4 0.00 0.36 0.00 76